map of PHE home
PHE - Airport
Location
City:  Port Hedland, Western Australia, Australia
ICAO:YPPD
IATA:PHE

Details
Type:Airport (Aerodrome, Airfield)
Use:Public/Civil, International (customs port of entry)
Latitude:2022'40"S (-20.377777)
Longitude:11837'35"E (118.626389)
Datum:WGS 1984
Elevation:33 ft (10 m)
Variation:1.22E (WMM2015 magnetic declination)
-0.06 annual change
Runways:2
Longest:8202 × 148 ft (2500 × 45 m), paved

Time
Time Zone:UTC+8
Local Time:

Weather
METAR:YPPD 191500Z AUTO 08006KT 9999 // SCT093 BKN120 24/04 Q1016
TAF:YPPD 191102Z 1912/2012 10014KT CAVOK
FM191800 14012KT CAVOK
FM200000 13017G27KT CAVOK
FM200400 10012KT CAVOK
FM200700 05010KT CAVOK

Related Locations
Nearby:
Farthest:AXA: 12250 mi / 19715 km
The Valley [Clayton J. Lloyd Intl (Anguilla Wallblake Airport)], Anguilla, AI

Find:

   beyond  
but within

Other Information
Maps:
NOTAMs:
Links:
Sources:

  
  • flag of Australia
  • flag of Western Australia
  

Sectional Chart

Flight Planning
at skyvector.com

Satellite Image

Google Maps Satellite view

 

Copyright © 2004-2018 Karl L. Swartz. All rights reserved.
The Great Circle Mapper name and logo are trademarks of the Great Circle Mapper.
All other trademarks mentioned herein belong to their respective owners.
Please see credits for attibutions and further copyright information.

  Follow gcmap on Facebook Follow gcmap on Twitter Follow gcmap on Google+ GCmap on LinkedIn

hCard Microformat

Geo Microformat